Powrót do katalogu

SL-12 R/B(2)

AktywnyGEO
NORAD 21925·ROCKET BODY·🇷🇺 Russia

Wystrzelony Apr 2, 1992 z Baikonur Cosmodrome

Loading…

TLE

ŚwieżeSource: Space-Track

Epoka: Aug 28, 2026, 04:09 UTC

1 21925U 92017D   26240.17353227 -.00000199  00000-0  00000+0 0  9991
2 21925  13.0096 340.0390 0020403  72.0444 301.2118  1.01088279126044

Śledź SL-12 R/B(2) w czasie rzeczywistym z AllMySat

Download on the App Store